Regional Weather Roundup
Issued by NWS Northern Indiana

Home | Current Version | Previous Version | Graphics & Text | Print | Product List | Glossary On
Versions: 1 2 3 4 5 6 7 8 9 10 11 12 13 14 15 16 17 18 19 20 21 22 23 24 25 26 27 28 29 30 31 32 33 34 35 36 37 38 39 40 41 42 43 44 45 46 47 48 49 50
000
ASUS43 KIWX 300410
RWRIWX

KIWX WEATHER ROUNDUP
NATIONAL WEATHER SERVICE NORTHERN INDIANA
1200 AM EDT TUE SEP 30 2014

NOTE: "FAIR" INDICATES FEW OR NO CLOUDS BELOW 12,000 FEET WITH NO
SIGNIFICANT WEATHER AND/OR OBSTRUCTIONS TO VISIBILITY.

* THESE STATIONS ARE NOT UNDER NWS QUALITY CONTROL. THEY ALSO MAY NOT
  REPORT WEATHER SUCH AS PRECIPITATION OR FOG.

INZ001>027-300500-
NORTHERN INDIANA

CITY           SKY/WX    TMP DP  RH WIND       PRES   REMARKS
GARY*          CLOUDY    60  55  82 N13G21    30.01S
VALPARAISO     CLOUDY    58  55  90 N9        29.98S
MICHIGAN CITY* CLOUDY    57  55  94 N14       29.99S
LAPORTE*       CLOUDY    59  58  94 N13G22    29.98S
KNOX*          CLOUDY    59  55  86 N12       29.97R
SOUTH BEND     CLOUDY    59  55  87 NW8       29.97S
MONTICELLO*    CLEAR     62  60  94 N6        29.94R
LOGANSPORT*    CLEAR     59  52  77 CALM      29.93S
ROCHESTER*     CLEAR     64  59  82 N10       29.94R
WARSAW*        CLEAR     61  55  82 NW6       29.94R
ANGOLA*        CLEAR     63  57  82 N7        29.93R
FORT WAYNE     PTCLDY    58  54  86 SW5       29.92F
HUNTINGTON*    CLEAR     58  57  97 CALM      29.92F
PERU/GRISSOM   CLEAR     61  61 100 S3        29.92F
MARION*        CLEAR     56  52  88 SW6       29.93F

$$
INZ028>050-300500-
CENTRAL INDIANA

CITY           SKY/WX    TMP DP  RH WIND       PRES   REMARKS
LAFAYETTE      PTCLDY    59  58  96 CALM      29.93S
KOKOMO*        CLEAR     57  54  88 S3        29.93F
MUNCIE*        CLEAR     59  53  80 CALM      29.94F
INDIANAPOLIS   CLEAR     63  54  72 SW5       29.93F

$$
MIZ043>046-050>051-056>058-064>065-071>073-077>080-300500-
SOUTHWEST LOWER MICHIGAN

CITY           SKY/WX    TMP DP  RH WIND       PRES   REMARKS
BATTLE CREEK   LGT RAIN  62  58  86 NW9       29.94S FOG
COLDWATER*     MOCLDY    62  59  89 W3        29.93S
HILLSDALE*     PTCLDY    63  60  89 NW6       29.92S
HOLLAND        CLOUDY    53  50  89 VRB5      29.99
GRAND RAPIDS   CLOUDY    53  52  96 N12       29.98R
KALAMAZOO      LGT RAIN  60  57  89 N10       29.95S FOG
STURGIS*       PTCLDY    61  57  88 NW7       29.93S FOG
THREE RIVERS*  CLOUDY    60  57  89 NW9       29.95R

$$
OHZ001>008-015>018-024>025-300500-
NORTHWEST OHIO

CITY           SKY/WX    TMP DP  RH WIND       PRES   REMARKS
WAUSEON*       FAIR      57  54  88 W3        29.90F
DEFIANCE       CLEAR     57  53  86 SW3       29.91F
FINDLAY        CLEAR     58  51  78 CALM      29.91F
TOLEDO EXPRESS CLEAR     56  54  93 CALM      29.89F
TOLEDO METCALF CLEAR     59  54  83 S6        29.90F
LIMA           CLEAR     59  52  77 S3        29.92F

$$
AND FOR LAKE MICHIGAN COASTAL AND OPEN LAKE BUOY OBSERVATIONS

STATION/POSITION TEMP    WIND        PRES    VSBY  WAVE
                 AIR SEA DIR/SP/G                  HT/PER
                 (F)     (DEG/KT/KT) (MB)    (MI)  (FT/S)
CALUMET HARBOR    58     350/ 11/ 16 1015.2
MICHIGAN CITY     58     360/ 22/ 25   N/A
SAINT JOSEPH      58     340/ 16/ 21 1015.2F
SOUTH LAKE BUOY   54 63  350/ 23/ 29 1015.8S         8/ 7
4 MI NW BRIDGMAN  58 63  360/ 19/ 25   N/A           7/ 2
MICHIGAN CITY     59 65   20/ 17/ 23   N/A           8/ 2

$$
&&



USA.gov is the U.S. government's official web portal to all federal, state and local government web resources and services.